This demonstration page uses our WeatherBlox Daily Observations layout. Learn more.

Left ArrowRight Arrow

Hourly Observations for July 23, 2022

Temp ( °F °C ) Dew Point ( °F °C ) Humidity (%) Winds ( mph kmh ) Pressure ( in mb ) Visibility ( mi km ) Precip ( " mm )
12:52 am 00:52 Partly Cloudy 82 27.8 74 23.3 77 77 SSE 8 13 29.83 1010 10 16 0.00 0.00
1:52 am 01:52 Mostly Cloudy 82 27.8 72 22.2 72 72 SSE 9 15 29.83 1010 10 16 0.00 0.00
2:52 am 02:52 Mostly Cloudy 81 27.2 71 21.7 72 72 SE 9 15 29.81 1009 10 16 0.00 0.00
3:52 am 03:52 Mostly Cloudy 79 26.1 71 21.7 77 77 SSE 10 17 29.80 1009 10 16 0.00 0.00
4:52 am 04:52 Partly Cloudy 77 25 70 21.1 79 79 SE 8 13 29.80 1009 10 16 0.00 0.00
5:52 am 05:52 Mostly Clear 76 24.4 70 21.1 82 82 SSE 10 17 29.80 1009 10 16 0.00 0.00
6:52 am 06:52 Sunny 77 25 69 20.6 77 77 SSE 9 15 29.79 1009 10 16 0.00 0.00
7:52 am 07:52 Sunny 80 26.7 69 20.6 69 69 SSE 9 15 29.80 1009 10 16 0.00 0.00
8:52 am 08:52 Sunny 84 28.9 68 20 59 59 S 12 19 29.80 1009 10 16 0.00 0.00
9:52 am 09:52 Mostly Sunny 88 31.1 67 19.4 50 50 S 15 24 29.78 1009 10 16 0.00 0.00
10:52 am 10:52 Mostly Sunny 91 32.8 67 19.4 45 45 S 14 22 29.78 1008 10 16 0.00 0.00
11:52 am 11:52 Partly Cloudy 93 33.9 66 18.9 41 41 SSW 20 31 29.76 1008 10 16 0.00 0.00
12:52 pm 12:52 Partly Cloudy 95 35 66 18.9 39 39 SSW 15 24 29.74 1007 10 16 0.00 0.00
1:52 pm 13:52 Partly Cloudy 97 36.1 68 20 39 39 S 23 37 29.73 1007 10 16 0.00 0.00
2:52 pm 14:52 Partly Cloudy 99 37.2 68 20 37 37 SSW 23 37 29.73 1007 10 16 0.00 0.00
3:52 pm 15:52 Partly Cloudy 99 37.2 69 20.6 38 38 S 23 37 29.72 1006 10 16 0.00 0.00
4:52 pm 16:52 Partly Cloudy 99 37.2 67 19.4 35 35 S 22 35 29.69 1005 10 16 0.00 0.00
5:52 pm 17:52 Partly Cloudy 100 37.8 67 19.4 34 34 S 22 35 29.67 1005 10 16 0.00 0.00
6:52 pm 18:52 Mostly Cloudy 97 36.1 67 19.4 37 37 S 15 24 29.69 1005 10 16 0.00 0.00
7:52 pm 19:52 Cloudy 95 35 68 20 41 41 S 9 15 29.71 1006 10 16 0.00 0.00
8:09 pm 20:09 Cloudy with Thunderstorms 95 35 68 20 41 41 S 10 17 29.68 1005 10 16 0.00 0.00
8:44 pm 20:44 Cloudy with Nearby Thunderstorms 89 31.7 71 21.7 55 55 W 30 48 29.75 1008 10 16 0.00 0.00
8:52 pm 20:52 Cloudy with Rain 81 27.2 72 22.2 74 74 WNW 20 31 29.80 1009 10 16 0.00 0.00
9:52 pm 21:52 Mostly Cloudy 79 26.1 73 22.8 82 82 SSE 13 20 29.75 1008 10 16 0.00 0.00
10:52 pm 22:52 Partly Cloudy 78 25.6 72 22.2 82 82 E 5 7 29.77 1008 10 16 0.00 0.00
11:52 pm 23:52 Partly Cloudy 76 24.4 72 22.2 88 88 NNW 7 11 29.78 1008 10 16 0.00 0.00

Powered by AerisWeather